Location: Sungai Bunut
(2.6333°N, 113.7333°E)
Time: 09:17:07
(UTC+00:00)

Transit 2A Rocket - Pass Details

Date: 05 December 2023
Orbit: 590 x 905 km, 66.7° (Epoch: 01 March)

Event Time Altitude Azimuth Distance (km) Brightness Sun altitude
Rises 13:09:38 0° 236° (SW) 3,288 9.1 -40.8°
Reaches altitude 10° 13:13:34 10° 263° (W) 2,277 8.0 -41.7°
Enters shadow 13:14:23 12° 272° (W) 2,151 7.8 -41.9°
Maximum altitude 13:15:47 13° 289° (WNW) 2,045 - -42.2°
Drops below altitude 10° 13:17:56 10° 315° (NW) 2,182 - -42.6°
Sets 13:21:33 0° 344° (NNW) 3,019 - -43.4°
